Regional Weather Roundup
Issued by NWS

Home | Current Version | Previous Version | Graphics & Text | Print | Product List | Glossary On
Versions: 1 2 3 4 5 6 7 8 9 10 11 12 13 14 15 16 17 18 19 20 21 22 23 24 25 26 27 28 29 30 31 32 33 34 35 36 37 38 39 40 41 42 43 44 45 46 47 48 49 50
000
ASUS43 KLMK 240202
RWRKY
KENTUCKY REGIONAL WEATHER ROUNDUP
NATIONAL WEATHER SERVICE LOUISVILLE KY
1000 PM EDT WED JUL 23 2014

NOTE "FAIR" INDICATES FEW OR NO CLOUDS BELOW 12,000 FEET
WITH NO SIGNIFICANT WEATHER AND/OR OBSTRUCTIONS TO VISIBILITY.

KYZ001>023-026-027-061>063-070>075-240300-
WESTERN AND SOUTH CENTRAL KENTUCKY

CITY           SKY/WX    TMP DP  RH WIND       PRES   REMARKS
PADUCAH        CLOUDY    79  70  74 N8        30.03R
HENDERSON      CLOUDY    73  66  78 N8        30.02R
OWENSBORO      LGT RAIN  74  73  96 N7        30.01S FOG
HOPKINSVILLE   PTCLDY    76  72  86 NW3       30.00R
BOWLING GREEN  PTCLDY    79  67  66 NW5       30.00R
GLASGOW        MOCLDY    76  69  79 SE5       30.00R
$$

KYZ024-025-028>034-038-045-046-053-240300-
NORTH CENTRAL KENTUCKY

CITY           SKY/WX    TMP DP  RH WIND       PRES   REMARKS
LOUISVILLE/SDF MOCLDY    79  70  74 N17       29.99R
LOUISVILLE/LOU MOCLDY    78  70  76 N12       30.00R
FORT KNOX      DRIZZLE   74  71  89 W5        29.99R
$$

KYZ035>037-039>044-047>052-055>060-089>105-240300-
NORTHEAST KENTUCKY

CITY           SKY/WX    TMP DP  RH WIND       PRES   REMARKS
LEXINGTON      MOCLDY    76  66  71 SW6       29.99R
COVINGTON      LGT RAIN  72  68  87 N16       30.00R
FRANKFORT      PTCLDY    77  68  73 W5        29.99R
$$

KYZ054-064>069-076>088-106>120-240300-
SOUTHEAST KENTUCKY

CITY           SKY/WX    TMP DP  RH WIND       PRES   REMARKS
JACKSON        HVY RAIN  68  65  90 VRB3      30.03S FOG
LONDON         TSTM      73  68  84 W8        30.02R
SOMERSET       LGT RAIN  70  68  94 W3        30.02S
MIDDLESBORO    MOCLDY    73  69  89 W3        30.03R
MONTICELLO     TSTM      73  71  93 CALM      30.05R FOG
$$



USA.gov is the U.S. government's official web portal to all federal, state and local government web resources and services.